Regional Weather Roundup
Issued by NWS

Home | Current Version | Previous Version | Text Only | Print | Product List | Glossary Off
Versions: 1 2 3 4 5 6 7 8 9 10 11 12 13 14 15 16 17 18 19 20 21 22 23 24 25 26 27 28 29 30 31 32 33 34 35 36 37 38 39 40 41 42 43 44 45 46 47 48 49 50

000
ASUS45 KBOU 280707
RWRCO

WEATHER ROUNDUP FOR COLORADO
NATIONAL WEATHER SERVICE DENVER/BOULDER CO
100 AM MDT FRI APR 28 2017

NOTE: "FAIR" INDICATES FEW OR NO CLOUDS BELOW 12000 FEET WITH NO
SIGNIFICANT WEATHER AND/OR OBSTRUCTIONS TO VISIBILITY.

COZ001>005-013-030-031-280800-
...NORTHWEST COLORADO...

CITY           SKY/WX    TMP DP  RH WIND       PRES   REMARKS
CRAIG          CLOUDY    33  22  63 SW13      29.76F WCI  24
HAYDEN         FAIR      30  21  69 W7        29.76S WCI  23
MEEKER         CLOUDY    31  29  92 CALM      29.78S
MOUNT WERNER   NOT AVBL
STEAMBOAT SPGS CLOUDY    31  24  74 CALM      29.75S
WALDEN           N/A     25  18  74 SW9       29.72F WCI  15
$$

COZ006>008-011-280800-
...WEST CENTRAL VALLEYS...

CITY           SKY/WX    TMP DP  RH WIND       PRES   REMARKS
GRAND JUNCTION MOCLDY    39  25  57 W5        29.76S
MONTROSE       MOCLDY    34  17  50 SE8       29.78R WCI  27
EAGLE          FAIR      34  23  64 VRB3      29.78S
RIFLE          CLOUDY    34  31  88 NE3       29.78S
DELTA          FAIR      38  22  52 NE3       29.76R
NUCLA          CLOUDY    36  10  35 E8        29.80S
$$

COZ017>023-064>068-280800-
...SOUTHWEST COLORADO...

CITY           SKY/WX    TMP DP  RH WIND       PRES   REMARKS
DURANGO        FAIR      38  13  35 N5        29.74F
CORTEZ         CLOUDY    41  24  51 CALM      29.78R
PAGOSA SPRINGS FAIR      32  15  50 CALM      29.76F
TELLURIDE      MOCLDY    30   9  41 CALM      29.80F
WOLF CREEK PAS FAIR      16  -4  41 W9G17     29.84F WCI   4
$$

COZ009-010-012-014-032>034-037-058>063-280800-
...CENTRAL COLORADO...

CITY           SKY/WX    TMP DP  RH WIND       PRES   REMARKS
ASPEN          FAIR      26  23  88 SW8       29.76F WCI  18
BUENA VISTA    FLURRIES  29  24  81 NW10      29.74F WCI  20
COPPER MTN     CLOUDY    18  12  79 MISG      29.74S
BERTHOUD PASS  CLOUDY     9  -2  61 NW29      29.67S WCI -14
COTTONWOOD PAS LGT SNOW  27  23  86 NW8       29.74R WCI  18
GUNNISON       FAIR      27  20  75 CALM      29.76S
KREMMLING      FAIR      34  23  64 CALM      29.76F
LEADVILLE      LGT SNOW  18  15  88 CALM      29.74F FOG
MONARCH PASS     N/A     14  12  92 W21       29.84F WCI  -4
SALIDA         FAIR      33  24  69 NW8       29.80S WCI  26
SUNLIGHT       MOCLDY   N/A N/A N/A W3        29.80F
WILKERSON PASS FAIR      18  12  79 NW8       29.73S WCI   7
$$

COZ069>075-280800-
...SAN LUIS VALLEY/SANGRE DE CRISTO MOUNTAINS...

CITY           SKY/WX    TMP DP  RH WIND       PRES   REMARKS
ALAMOSA        MOCLDY    30  20  66 NE8       29.75R WCI  22
LA VETA PASS   MOCLDY    25  12  58 SW9G23    29.85F WCI  15
SAGUACHE       FAIR      28  14  54 NW7       29.74S WCI  21
$$

COZ035-036-038>040-280800-
...NORTHERN COLORADO FRONT RANGE...

CITY           SKY/WX    TMP DP  RH WIND       PRES   REMARKS
DENVER INTL AP FAIR      34  25  69 CALM      29.63S
DMNS CITY PARK   N/A     43  16  33 W10       29.63F
AURORA         PTCLDY    41  18  39 W9        29.63F
FRONT RANGE AP FAIR      37  28  70 CALM      29.64S
ERIE MUNI ARPT FAIR      34  28  77 CALM      29.63S
BOULDER MUN AP FAIR      39  21  48 CALM      29.62F
CENTENNIAL     FAIR      40  17  39 NW8       29.63F
BROOMFIELD     FAIR      41  21  45 W20       29.63F
FORT COLLINS   FAIR      36  33  89 SE7       29.63F
LONGMONT       FAIR      40  36  85 SW7       29.64F FOG
$$

COZ041-046-047-076>085-087-088-280800-
...PIKES PEAK/PALMER DIVIDE AND SOUTHERN FOOTHILLS...

CITY           SKY/WX    TMP DP  RH WIND       PRES   REMARKS
COLO. SPRINGS  FAIR      39  26  59 N9        29.66F
A. F. ACADEMY  FAIR      35  22  60 NW6       29.66S WCI  30
SCHRIEVER AFB  MOCLDY    38  28  65 NW8       29.66F
ELLICOTT       FAIR     N/A N/A N/A NE5       29.64F
FALCON         FAIR      34  27  73 W9        29.67F WCI  27
FORT CARSON    FAIR      40  27  58 SW5       29.65S
LIMON          FAIR      30  30 100 N3        29.65S
MONUMENT HILL  FAIR      30  27  86 W8        29.67F WCI  23
TRINIDAD       FAIR      37  33  85 SW9       29.69R
$$

COZ042>045-048>051-090-091-280800-
...NORTHEAST COLORADO...

CITY           SKY/WX    TMP DP  RH WIND       PRES   REMARKS
GREELEY ARPT   FAIR      35  33  92 CALM      29.64F
AKRON          CLOUDY    37  35  92 NW10      29.62S
BURLINGTON     NOT AVBL
WRAY           NOT AVBL
STERLING       CLOUDY    41  39  93 N6        29.62S
HOLYOKE        RAIN      37  36  93 NE15      29.62F
FORT MORGAN    FAIR      34  33  95 SW3       29.64S FOG
$$

COZ086-089-092>099-280800-
...SOUTHEAST COLORADO...

CITY           SKY/WX    TMP DP  RH WIND       PRES   REMARKS
PUEBLO         FAIR      39  34  82 W5        29.64S
LA JUNTA       FAIR      40  37  89 CALM      29.64S
LAMAR          FAIR      41  36  82 N8        29.61R
SPRINGFIELD      N/A     39  38  96 NW10      29.62R
$$



USA.gov is the U.S. government's official web portal to all federal, state and local government web resources and services.